• In Hungary
  • List of Countries
  • For 7 days
  • Water Temperature
  • Satellite Maps
  • Weather Map
  • News
  • Weather Widgets
  • user-avatar
    Login

    Hourly Weather Horodysche

    Today, 12 December, Tuesday

    Time Temperature Precipitation Wind Pressure Humidity
    00:00 -1°C° 0 mm 3 mps 748 mmHg 83%
    01:00 -1°C° 0 mm 3 mps 748 mmHg 83%
    02:00 -1°C° 0 mm 3 mps 747 mmHg 86%
    03:00 -1°C° 0.1 mm 3 mps 747 mmHg 86%
    04:00 0°C° 0.1 mm 3 mps 747 mmHg 86%
    05:00 -1°C° 0.1 mm 4 mps 747 mmHg 86%
    06:00 -1°C° 0.3 mm 4 mps 747 mmHg 88%
    07:00 0°C° 0.3 mm 4 mps 747 mmHg 90%
    08:00 0°C° 0 mm 4 mps 747 mmHg 92%
    09:00 +1°C° 0.1 mm 4 mps 747 mmHg 92%
    10:00 +1°C° 0.1 mm 4 mps 747 mmHg 93%
    11:00 +2°C° 0.1 mm 5 mps 747 mmHg 93%
    12:00 +2°C° 0 mm 5 mps 747 mmHg 93%
    13:00 +2°C° 0 mm 5 mps 747 mmHg 93%
    14:00 +2°C° 0 mm 5 mps 747 mmHg 93%
    15:00 +3°C° 0 mm 4 mps 747 mmHg 93%
    16:00 +1°C° 0 mm 4 mps 747 mmHg 93%
    17:00 +1°C° 0 mm 4 mps 747 mmHg 94%
    18:00 0°C° 0 mm 4 mps 747 mmHg 93%
    19:00 0°C° 0 mm 4 mps 747 mmHg 92%
    20:00 +1°C° 0 mm 3 mps 747 mmHg 91%
    21:00 +1°C° 0 mm 3 mps 748 mmHg 91%
    22:00 +1°C° 0 mm 3 mps 748 mmHg 91%
    23:00 +1°C° 0 mm 3 mps 748 mmHg 90%

    Tomorrow, 13 December, Wednesday

    Time Temperature Precipitation Wind Pressure Humidity
    00:00 +1°C° 0 mm 3 mps 748 mmHg 90%
    01:00 +1°C° 0 mm 3 mps 749 mmHg 90%
    02:00 +1°C° 0 mm 3 mps 749 mmHg 90%
    03:00 +1°C° 0 mm 3 mps 749 mmHg 90%
    04:00 +1°C° 0 mm 3 mps 749 mmHg 90%
    05:00 +1°C° 0 mm 3 mps 749 mmHg 89%
    06:00 +2°C° 0 mm 2 mps 750 mmHg 89%
    07:00 +2°C° 0 mm 2 mps 750 mmHg 89%
    08:00 +2°C° 0 mm 2 mps 750 mmHg 89%
    09:00 +3°C° 0 mm 2 mps 750 mmHg 89%
    10:00 +4°C° 0 mm 2 mps 750 mmHg 89%
    11:00 +6°C° 0 mm 1 mps 750 mmHg 88%
    12:00 +6°C° 0.1 mm 1 mps 750 mmHg 89%
    13:00 +6°C° 0.1 mm 1 mps 750 mmHg 90%
    14:00 +6°C° 0.1 mm 1 mps 750 mmHg 90%
    15:00 +5°C° 0.3 mm 1 mps 750 mmHg 91%
    16:00 +5°C° 0.3 mm 1 mps 750 mmHg 92%
    17:00 +5°C° 0.3 mm 1 mps 749 mmHg 93%
    18:00 +5°C° 0.3 mm 1 mps 749 mmHg 94%
    19:00 +4°C° 0.3 mm 1 mps 749 mmHg 94%
    20:00 +3°C° 0.3 mm 2 mps 748 mmHg 94%
    21:00 +3°C° 0 mm 2 mps 748 mmHg 95%
    22:00 +3°C° 0 mm 2 mps 747 mmHg 96%
    23:00 +3°C° 0 mm 2 mps 747 mmHg 96%

    Day after tomorrow, 14 December, Thursday

    Time Temperature Precipitation Wind Pressure Humidity
    00:00 +3°C° 0 mm 2 mps 747 mmHg 97%
    01:00 +3°C° 0 mm 2 mps 746 mmHg 97%
    02:00 +4°C° 0 mm 2 mps 746 mmHg 97%
    03:00 +4°C° 0.2 mm 2 mps 746 mmHg 97%
    04:00 +4°C° 0.2 mm 2 mps 745 mmHg 98%
    05:00 +4°C° 0.2 mm 2 mps 745 mmHg 98%
    06:00 +4°C° 0.1 mm 2 mps 745 mmHg 97%
    07:00 +3°C° 0.1 mm 3 mps 745 mmHg 97%
    08:00 +3°C° 0.1 mm 3 mps 745 mmHg 97%
    09:00 +3°C° 0.1 mm 3 mps 745 mmHg 96%
    10:00 +3°C° 0.1 mm 3 mps 745 mmHg 94%
    11:00 +3°C° 0.1 mm 3 mps 745 mmHg 93%
    12:00 +3°C° 0.2 mm 3 mps 745 mmHg 93%
    13:00 +4°C° 0.2 mm 2 mps 744 mmHg 94%
    14:00 +4°C° 0.2 mm 2 mps 744 mmHg 94%
    15:00 +3°C° 0.6 mm 2 mps 744 mmHg 94%
    16:00 +3°C° 0.6 mm 2 mps 745 mmHg 95%
    17:00 +3°C° 0.6 mm 2 mps 745 mmHg 96%
    18:00 +3°C° 0.1 mm 2 mps 745 mmHg 96%
    19:00 +2°C° 0.1 mm 2 mps 745 mmHg 96%
    20:00 +2°C° 0.1 mm 2 mps 745 mmHg 96%
    21:00 +2°C° 0 mm 2 mps 745 mmHg 96%
    22:00 +1°C° 0 mm 2 mps 745 mmHg 95%
    23:00 +2°C° 0 mm 1 mps 745 mmHg 95%

    15 December, Friday

    Time Temperature Precipitation Wind Pressure Humidity
    00:00 +1°C° 0 mm 2 mps 745 mmHg 95%
    01:00 +1°C° 0 mm 2 mps 745 mmHg 94%
    02:00 +1°C° 0 mm 2 mps 745 mmHg 94%
    03:00 +1°C° 0 mm 2 mps 745 mmHg 94%
    04:00 +1°C° 0 mm 2 mps 745 mmHg 94%
    05:00 +2°C° 0 mm 1 mps 746 mmHg 94%
    06:00 +1°C° 0 mm 2 mps 746 mmHg 93%
    07:00 +1°C° 0 mm 2 mps 746 mmHg 93%
    08:00 +1°C° 0 mm 2 mps 746 mmHg 93%
    09:00 +1°C° 0 mm 3 mps 746 mmHg 92%
    10:00 +1°C° 0 mm 4 mps 746 mmHg 90%
    11:00 +1°C° 0 mm 4 mps 746 mmHg 89%
    12:00 +1°C° 0 mm 5 mps 745 mmHg 89%
    13:00 +2°C° 0 mm 5 mps 745 mmHg 89%
    14:00 +2°C° 0 mm 5 mps 745 mmHg 88%
    15:00 +2°C° 0 mm 5 mps 745 mmHg 89%
    16:00 +2°C° 0 mm 5 mps 744 mmHg 90%
    17:00 +2°C° 0 mm 6 mps 744 mmHg 91%
    18:00 +2°C° 0.2 mm 7 mps 744 mmHg 90%
    19:00 +3°C° 0.2 mm 7 mps 744 mmHg 90%
    20:00 +4°C° 0.2 mm 8 mps 744 mmHg 90%
    21:00 +4°C° 0.2 mm 8 mps 744 mmHg 88%
    22:00 +4°C° 0.2 mm 8 mps 744 mmHg 87%
    23:00 +4°C° 0.2 mm 7 mps 744 mmHg 86%

    16 December, Saturday

    Time Temperature Precipitation Wind Pressure Humidity
    00:00 +4°C° 0.1 mm 7 mps 744 mmHg 87%
    01:00 +3°C° 0.1 mm 6 mps 744 mmHg 87%
    02:00 +3°C° 0.1 mm 5 mps 745 mmHg 88%
    03:00 +4°C° 0 mm 6 mps 744 mmHg 90%
    04:00 +4°C° 0 mm 6 mps 744 mmHg 91%
    05:00 +4°C° 0 mm 6 mps 744 mmHg 93%
    06:00 +4°C° 0.1 mm 6 mps 744 mmHg 92%
    07:00 +5°C° 0.1 mm 6 mps 744 mmHg 92%
    08:00 +5°C° 0.1 mm 7 mps 743 mmHg 92%
    09:00 +5°C° 0.3 mm 7 mps 743 mmHg 90%
    10:00 +6°C° 0.3 mm 8 mps 743 mmHg 88%
    11:00 +6°C° 0.3 mm 8 mps 742 mmHg 86%
    12:00 +6°C° 0.8 mm 8 mps 742 mmHg 86%
    13:00 +6°C° 0.8 mm 9 mps 742 mmHg 86%
    14:00 +6°C° 0.8 mm 9 mps 741 mmHg 85%
    15:00 +6°C° 0.5 mm 8 mps 741 mmHg 86%
    16:00 +6°C° 0.5 mm 7 mps 742 mmHg 86%
    17:00 +7°C° 0.5 mm 6 mps 742 mmHg 87%
    18:00 +7°C° 0.3 mm 5 mps 742 mmHg 89%
    19:00 +7°C° 0.3 mm 5 mps 743 mmHg 90%
    20:00 +6°C° 0.3 mm 4 mps 743 mmHg 91%
    21:00 +6°C° 0.1 mm 4 mps 743 mmHg 92%
    22:00 +5°C° 0.1 mm 3 mps 744 mmHg 92%
    23:00 +4°C° 0.1 mm 3 mps 744 mmHg 93%

    17 December, Sunday

    Time Temperature Precipitation Wind Pressure Humidity
    00:00 +5°C° 0.2 mm 2 mps 745 mmHg 92%
    01:00 +4°C° 0.2 mm 2 mps 745 mmHg 92%
    02:00 +4°C° 0.2 mm 2 mps 746 mmHg 91%
    03:00 +4°C° 0.1 mm 2 mps 746 mmHg 91%
    04:00 +3°C° 0.1 mm 2 mps 746 mmHg 91%
    05:00 +3°C° 0.1 mm 2 mps 746 mmHg 91%
    06:00 +3°C° 0.1 mm 2 mps 746 mmHg 90%
    07:00 +3°C° 0.1 mm 2 mps 747 mmHg 90%
    08:00 +2°C° 0.1 mm 3 mps 747 mmHg 89%
    09:00 +2°C° 0.1 mm 3 mps 747 mmHg 88%
    10:00 +2°C° 0.1 mm 3 mps 747 mmHg 87%
    11:00 +2°C° 0.1 mm 3 mps 748 mmHg 86%
    12:00 +2°C° 0.1 mm 3 mps 747 mmHg 85%
    13:00 +2°C° 0.1 mm 3 mps 747 mmHg 84%
    14:00 +1°C° 0.1 mm 4 mps 747 mmHg 84%
    15:00 +1°C° 0.5 mm 4 mps 746 mmHg 84%
    16:00 +1°C° 0.5 mm 5 mps 746 mmHg 85%
    17:00 +1°C° 0.5 mm 5 mps 746 mmHg 86%
    18:00 +1°C° 1.2 mm 5 mps 746 mmHg 88%
    19:00 +1°C° 1.2 mm 5 mps 745 mmHg 90%
    20:00 +1°C° 1.2 mm 5 mps 745 mmHg 92%
    21:00 0°C° 1.6 mm 5 mps 744 mmHg 93%
    22:00 0°C° 1.6 mm 5 mps 744 mmHg 94%
    23:00 0°C° 1.6 mm 5 mps 744 mmHg 94%
    Show more